Location: Home
(42.5358°N, 72.7383°W)
Time: 08:39:58
(UTC-05:00)

deb Explorer IX - Pass Details

Date: 04 December 2021
Orbit: 544 x 1082 km, 38.8° (Epoch: 19 January)

Event Time Altitude Azimuth Distance (km) Brightness Sun altitude
Rises 15:26:47 0° 265° (W) 2,697 ? 6.9°
Reaches altitude 10° 15:30:38 10° 228° (SW) 1,808 ? 6.4°
Maximum altitude 15:31:46 11° 212° (SSW) 1,755 ? 6.2°
Drops below altitude 10° 15:32:54 10° 196° (SSW) 1,828 ? 6.0°
Sets 15:36:53 0° 159° (SSE) 2,793 ? 5.5°
